Carroll, IA

12:19 PM CDT on June 22, 2017 (GMT -0500)
Neu

Weather History for KCIN - March, 2014

Change the Weather History Date:

Saturday, March 15, 2014

  Actual Average Record
Temperature  
Mean Temperature 35 °F -  
Max Temperature 42 °F 45 °F 77 °F (2012)
Min Temperature 28 °F 25 °F 3 °F (1949)
Degree Days  
Heating Degree Days 30    
Moisture  
Dew Point 27 °F    
Average Humidity 78    
Maximum Humidity 93    
Minimum Humidity 49    
Precipitation  
Precipitation 0.00 in - - ()
Sea Level Pressure  
Sea Level Pressure 30.04 in    
Wind  
Wind Speed 11 mph (ENE)    
Max Wind Speed 30 mph    
Max Gust Speed 38 mph    
Visibility 9 miles    
Events Snow    
Averages and records for this station are not official NWS values.
T = Trace of Precipitation, MM = Missing Value Source: NWS Daily Summary

Daily Weather History Graph

Daily Weather History Graph

Search for Another Location

Airport or City:

Trip Planner

Search our weather history database for the weather conditions in past years. The results will help you decide how hot, cold, wet, or windy it might be!

Date:

Astronomy

Mar. 15, 2014 Rise Set
Actual Time 7:30 AM CDT 7:25 PM CDT
Civil Twilight 7:03 AM CDT 7:53 PM CDT
Nautical Twilight 6:30 AM CDT 8:26 PM CDT
Astronomical Twilight 5:57 AM CDT 8:59 PM CDT
Moon 6:45 PM CDT (3/15) 6:43 AM CDT (3/15)
Length of Visible Light 12h 50m
Length of Day
11h 54m
Waxing Gibbous, 99% of the Moon is Illuminated
Mar 15
Waxing Gibbous
Mar 16
Full
Mar 23
Last Quarter
Mar 30
New
Apr 7
First Quarter

Hourly Weather History & Observations

Time (CDT) Temp. Windchill Dew Point Humidity Pressure Visibility Wind Dir Wind Speed Gust Speed Precip Events Conditions
12:15 AM 30.2 °F - 28.4 °F 93% 29.96 in 10.0 mi Calm Calm - N/A   Clear
12:35 AM 28.4 °F - 26.6 °F 93% 29.96 in 10.0 mi Calm Calm - N/A   Clear
12:55 AM 30.2 °F - 28.4 °F 93% 29.96 in 10.0 mi Calm Calm - N/A   Scattered Clouds
1:15 AM 30.2 °F 25.4 °F 28.4 °F 93% 29.96 in 10.0 mi NE 4.6 mph - N/A   Mostly Cloudy
1:35 AM 32.0 °F - 28.4 °F 87% 29.97 in 10.0 mi Calm Calm - N/A   Overcast
1:55 AM 32.0 °F 28.7 °F 30.2 °F 93% 29.96 in 10.0 mi ENE 3.5 mph - N/A   Overcast
2:15 AM 32.0 °F 28.7 °F 30.2 °F 93% 29.97 in 10.0 mi ENE 3.5 mph - N/A   Overcast
2:35 AM 32.0 °F - 30.2 °F 93% 29.97 in 10.0 mi Calm Calm - N/A   Overcast
2:55 AM 32.0 °F - 30.2 °F 93% 29.97 in 10.0 mi Calm Calm - N/A   Scattered Clouds
3:15 AM 32.0 °F 26.4 °F 30.2 °F 93% 29.98 in 10.0 mi ENE 5.8 mph - N/A   Mostly Cloudy
3:35 AM 32.0 °F 27.5 °F 30.2 °F 93% 29.98 in 10.0 mi East 4.6 mph - N/A   Scattered Clouds
3:55 AM 30.2 °F 23.4 °F 28.4 °F 93% 29.96 in 10.0 mi East 6.9 mph - N/A   Clear
4:15 AM 32.0 °F 25.6 °F 30.2 °F 93% 29.96 in 10.0 mi East 6.9 mph - N/A   Mostly Cloudy
4:35 AM 32.0 °F 26.4 °F 28.4 °F 87% 29.96 in 10.0 mi ESE 5.8 mph - N/A   Overcast
4:55 AM 32.0 °F 26.4 °F 28.4 °F 87% 29.95 in 10.0 mi East 5.8 mph - N/A   Overcast
5:15 AM 30.2 °F 23.4 °F 28.4 °F 93% 29.95 in 10.0 mi East 6.9 mph - N/A   Overcast
5:35 AM 30.2 °F 23.4 °F 28.4 °F 93% 29.94 in 10.0 mi ESE 6.9 mph - N/A   Mostly Cloudy
5:55 AM 30.2 °F 23.4 °F 28.4 °F 93% 29.94 in 10.0 mi ESE 6.9 mph - N/A   Scattered Clouds
6:15 AM 30.2 °F 22.6 °F 28.4 °F 93% 29.94 in 10.0 mi East 8.1 mph - N/A   Scattered Clouds
6:35 AM 30.2 °F 22.6 °F 28.4 °F 93% 29.94 in 10.0 mi East 8.1 mph - N/A   Scattered Clouds
6:55 AM 30.2 °F 22.6 °F 28.4 °F 93% 29.94 in 10.0 mi ESE 8.1 mph - N/A   Overcast
7:15 AM 30.2 °F 21.3 °F 28.4 °F 93% 29.94 in 10.0 mi ESE 10.4 mph - N/A   Mostly Cloudy
7:35 AM 32.0 °F 23.6 °F 26.6 °F 80% 29.94 in 10.0 mi ESE 10.4 mph - N/A   Mostly Cloudy
7:50 AM 32.0 °F 23.0 °F 28.4 °F 87% 29.95 in 10.0 mi East 11.5 mph - N/A   Scattered Clouds
8:15 AM 32.0 °F 23.6 °F 26.6 °F 80% 29.96 in 10.0 mi ESE 10.4 mph - N/A   Scattered Clouds
8:35 AM 32.0 °F 22.5 °F 26.6 °F 80% 29.97 in 10.0 mi East 12.7 mph - N/A   Partly Cloudy
8:55 AM 32.0 °F 22.5 °F 26.6 °F 80% 29.98 in 10.0 mi East 12.7 mph - N/A   Clear
9:15 AM 33.8 °F 23.9 °F 24.8 °F 70% 29.98 in 10.0 mi East 15.0 mph - N/A   Clear
9:35 AM 33.8 °F 24.3 °F 24.8 °F 70% 29.99 in 10.0 mi East 13.8 mph - N/A   Clear
9:55 AM 35.6 °F 25.9 °F 24.8 °F 65% 30.00 in 10.0 mi East 16.1 mph - N/A   Clear
10:15 AM 35.6 °F 25.5 °F 23.0 °F 60% 30.00 in 10.0 mi East 17.3 mph - N/A   Clear
10:30 AM 35.6 °F 24.8 °F 23.0 °F 60% 30.00 in 10.0 mi East 19.6 mph - N/A   Clear
10:55 AM 37.4 °F 27.2 °F 23.0 °F 56% 29.99 in 10.0 mi East 19.6 mph - N/A   Clear
11:15 AM 39.2 °F 29.6 °F 23.0 °F 52% 29.99 in 10.0 mi East 19.6 mph - N/A   Clear
11:35 AM 39.2 °F 29.3 °F 24.8 °F 56% 29.99 in 10.0 mi East 20.7 mph - N/A   Clear
11:55 AM 39.2 °F 28.5 °F 23.0 °F 52% 29.99 in 10.0 mi East 24.2 mph 29.9 mph N/A   Clear
12:15 PM 39.2 °F 28.7 °F 23.0 °F 52% 29.99 in 10.0 mi East 23.0 mph 28.8 mph N/A   Mostly Cloudy
12:35 PM 42.8 °F 34.0 °F 24.8 °F 49% 29.99 in 10.0 mi East 20.7 mph 28.8 mph N/A   Mostly Cloudy
12:55 PM 42.8 °F 34.0 °F 24.8 °F 49% 29.99 in 10.0 mi East 20.7 mph - N/A   Scattered Clouds
1:15 PM 41.0 °F 30.9 °F 24.8 °F 53% 30.00 in 10.0 mi East 24.2 mph 29.9 mph N/A   Partly Cloudy
1:35 PM 42.8 °F 33.3 °F 24.8 °F 49% 30.00 in 10.0 mi East 24.2 mph - N/A   Partly Cloudy
1:55 PM 42.8 °F 34.0 °F 26.6 °F 53% 29.99 in 10.0 mi East 20.7 mph 29.9 mph N/A   Partly Cloudy
2:15 PM 42.8 °F 34.0 °F 26.6 °F 53% 30.00 in 10.0 mi East 20.7 mph - N/A   Partly Cloudy
2:35 PM 42.8 °F 33.8 °F 26.6 °F 53% 30.00 in 10.0 mi ENE 21.9 mph 28.8 mph N/A   Clear
2:55 PM 41.0 °F 31.6 °F 26.6 °F 57% 30.01 in 10.0 mi ENE 20.7 mph 27.6 mph N/A   Clear
3:15 PM 41.0 °F 31.4 °F 26.6 °F 57% 30.01 in 10.0 mi ENE 21.9 mph - N/A   Clear
3:35 PM 41.0 °F 32.2 °F 28.4 °F 61% 30.02 in 10.0 mi NE 18.4 mph 24.2 mph N/A   Clear
3:55 PM 41.0 °F 30.9 °F 28.4 °F 61% 30.03 in 10.0 mi NE 24.2 mph - N/A   Clear
4:15 PM 41.0 °F 31.4 °F 28.4 °F 61% 30.03 in 10.0 mi NE 21.9 mph 29.9 mph N/A   Clear
4:35 PM 41.0 °F 30.9 °F 26.6 °F 57% 30.04 in 10.0 mi NE 24.2 mph 32.2 mph N/A   Partly Cloudy
4:55 PM 37.4 °F 25.4 °F 24.8 °F 60% 30.04 in 10.0 mi NE 27.6 mph 33.4 mph N/A   Partly Cloudy
5:15 PM 35.6 °F 23.2 °F 26.6 °F 70% 30.06 in 10.0 mi NE 26.5 mph 33.4 mph N/A   Scattered Clouds
5:35 PM 33.8 °F 21.6 °F 28.4 °F 81% 30.08 in 10.0 mi NE 23.0 mph 32.2 mph N/A   Overcast
5:55 PM 33.8 °F 21.3 °F 28.4 °F 81% 30.09 in 10.0 mi NE 24.2 mph 31.1 mph N/A   Overcast
6:15 PM 33.8 °F 21.3 °F 28.4 °F 81% 30.10 in 10.0 mi NE 24.2 mph 31.1 mph N/A   Overcast
6:35 PM 32.0 °F 18.1 °F 26.6 °F 80% 30.11 in 10.0 mi NE 27.6 mph 34.5 mph N/A   Overcast
6:55 PM 32.0 °F 17.6 °F 26.6 °F 80% 30.12 in 10.0 mi NE 29.9 mph 38.0 mph N/A   Overcast
7:15 PM 30.2 °F 15.4 °F 26.6 °F 86% 30.13 in 10.0 mi NE 28.8 mph - N/A   Overcast
7:35 PM 30.2 °F 16.5 °F 28.4 °F 93% 30.14 in 7.0 mi NE 24.2 mph 31.1 mph N/A   Overcast
7:55 PM 30.2 °F 16.5 °F 28.4 °F 93% 30.16 in 2.0 mi NE 24.2 mph 31.1 mph N/A Snow Light Snow
8:15 PM 30.2 °F 17.8 °F 28.4 °F 93% 30.17 in 1.2 mi NE 19.6 mph 29.9 mph N/A Snow Light Snow
8:35 PM 28.4 °F 15.4 °F 26.6 °F 93% 30.18 in 1.5 mi NE 19.6 mph 26.5 mph N/A Snow Light Snow
8:55 PM 28.4 °F 14.7 °F 26.6 °F 93% 30.20 in 2.5 mi NE 21.9 mph 31.1 mph N/A Snow Light Snow
9:15 PM 28.4 °F 14.4 °F 26.6 °F 93% 30.21 in 1.8 mi NNE 23.0 mph 29.9 mph N/A Snow Light Snow
9:35 PM 28.4 °F 14.4 °F 26.6 °F 93% 30.23 in 2.0 mi NE 23.0 mph 31.1 mph N/A Snow Light Snow
9:55 PM 28.4 °F 16.2 °F 26.6 °F 93% 30.23 in 1.5 mi NNE 17.3 mph 24.2 mph N/A Snow Light Snow
10:15 PM 28.4 °F 17.0 °F 24.8 °F 86% 30.25 in 2.0 mi NNE 15.0 mph 27.6 mph N/A Snow Light Snow
10:35 PM 28.4 °F 15.4 °F 24.8 °F 86% 30.25 in 3.0 mi NNE 19.6 mph - N/A Snow Light Snow
10:55 PM 28.4 °F 16.2 °F 24.8 °F 86% 30.26 in 8.0 mi NE 17.3 mph - N/A   Overcast
11:15 PM 28.4 °F 16.2 °F 23.0 °F 80% 30.26 in 9.0 mi NNE 17.3 mph - N/A   Overcast
11:35 PM 28.4 °F 17.0 °F 23.0 °F 80% 30.27 in 10.0 mi NNE 15.0 mph 25.3 mph N/A   Overcast
11:55 PM 28.4 °F 16.6 °F 21.2 °F 74% 30.26 in 10.0 mi NE 16.1 mph 23.0 mph N/A   Overcast